Lexington Weather

Lexington, Massachusetts, USA

32°F
12/8/2019 4:25pm 
  • Lexington Conditions: Mostly cloudy
  • Temperature: 32.4°F / 0.2°CColder 1.0°F than last hour.
  • Dew Point: 18.5°FIncreased 1.6°Fsince last hour.
  • Relative Humidity: 56%Increased 6.0% since last hour.
  • Wind: Wind from SW SW 2 mph, 10-min avg: 2 mph, gust: 4 mph
  • Barometer: 30.41 in Steady
  • Visibility: 10 miles
  • Snow Today: 0.0 in
  •   

Regional Weather Roundup
for Boston / Norton, MA

        
000
ASUS41 KBOX 080700
RWRBOX

REGIONAL WEATHER ROUNDUP
NATIONAL WEATHER SERVICE BOSTON/NORTON MA
200 AM EST SUN DEC 08 2019

NOTE:  "FAIR" INDICATES FEW OR NO CLOUDS BELOW 12,000 FEET WITH NO 
SIGNIFICANT WEATHER AND/OR OBSTRUCTIONS TO VISIBILITY.

MAZALL-080800-
EASTERN MASSACHUSETTS
  
CITY           SKY/WX    TMP DP  RH WIND       PRES   REMARKS
BOSTON         FAIR      25  12  58 W7        30.50R WCI  17          
BEVERLY        FAIR      15  10  80 NW5       30.48R WCI   8          
LAWRENCE       FAIR      12   8  84 S5        30.49S WCI   4          
BEDFORD        FAIR       8   4  83 CALM      30.48R                  
BLUE HILL        N/A     17  13  84 W7        30.44R WCI   8          
NORWOOD        FAIR      14   7  73 CALM      30.49R                  
MARSHFIELD     NOT AVBL                                               
PLYMOUTH       FAIR      18  13  80 W6        30.48R WCI  10          
TAUNTON        FAIR      14   9  80 CALM      30.49R                  
NEW BEDFORD    FAIR      17  12  80 CALM      30.49R                  
$$

MAZALL-080800-
CAPE COD AND THE ISLANDS
  
CITY           SKY/WX    TMP DP  RH WIND       PRES   REMARKS
FALMOUTH       NOT AVBL                                               
HYANNIS        NOT AVBL                                               
CHATHAM        MOCLDY    29  15  56 CALM      30.48R                  
PROVINCETOWN   FAIR      29  18  63 NW13      30.48R WCI  19          
NANTUCKET      FAIR      29  18  63 NW10      30.47R WCI  20          
MARTHAS VNYRD  FAIR      25  12  58 NW7       30.49R WCI  17          
$$
 
MAZALL-080800-
CENTRAL AND WESTERN MASSACHUSETTS
  
CITY           SKY/WX    TMP DP  RH WIND       PRES   REMARKS
WORCESTER      FAIR      16  10  77 W9        30.42R WCI   4          
FITCHBURG      FAIR       7   2  80 CALM      30.48R                  
ORANGE         FAIR       0  -6  76 CALM      30.48R                  
SPRINGFIELD    FAIR       2  -2  82 CALM      30.48R                  
WESTFIELD      FAIR       6   2  83 CALM      30.49R                  
NORTH ADAMS    FAIR       2  -3  80 CALM      30.48R                  
PITTSFIELD     FAIR       9   4  80 VRB3      30.42R                  
$$
 
RIZALL-080800-
RHODE ISLAND
  
CITY           SKY/WX    TMP DP  RH WIND       PRES   REMARKS
PROVIDENCE     FAIR      21  13  71 W3        30.51R                  
NEWPORT        FAIR      25  15  66 N3        30.49R                  
BLOCK ISLAND   FAIR      27  17  66 N7        30.50R WCI  19          
SMITHFIELD     FAIR      16  12  84 W3        30.48R                  
WESTERLY       FAIR      24  12  60 CALM      30.51R                  
$$
 
CTZALL-080800-
CONNECTICUT
  
CITY           SKY/WX    TMP DP  RH WIND       PRES   REMARKS
BRADLEY INTL   FAIR      18   8  65 CALM      30.50R                  
HARTFORD       FAIR      22  12  65 CALM      30.52R                  
BRIDGEPORT     FAIR      24  15  68 N3        30.52R                  
DANBURY        FAIR      16  12  84 CALM      30.50R                  
GROTON         NOT AVBL                                               
NEW HAVEN      NOT AVBL                                               
CHESTER        FAIR      19  12  73 CALM      30.49R                  
MERIDEN        FAIR      19  13  77 CALM      30.52R                  
WILLIMANTIC    FAIR      15  11  83 CALM      30.51R                  
OXFORD         FAIR      17  12  80 W3        30.48R                  
$$

MEZ002-015-021-024-NHZ003-005-008-011-012-014-VTZ005-008-080800-
NORTHERN NEW ENGLAND
  
CITY           SKY/WX    TMP DP  RH WIND       PRES   REMARKS
PORTLAND ME    FAIR      13   6  74 CALM      30.46R                  
BANGOR ME      FAIR      11   7  84 W3        30.41R                  
CONCORD NH     FAIR       3  -2  79 W3        30.46S                  
MANCHESTER NH  FAIR       7   3  84 CALM      30.45S                  
NASHUA NH      FAIR       1  -2  87 CALM      30.49R                  
PORTSMOUTH NH  CLEAR     16  11  81 W5        30.45S WCI   9          
JAFFREY NH     FAIR      -6 -11  79 S5        30.41R WCI -17          
KEENE NH       FAIR      -1  -3  91 CALM      30.49R                  
BURLINGTON VT  FAIR       8   4  83 S3        30.45S                  
MT. WASHINGTON PTCLDY    -2  -9  71 NW41G51     N/A  WCI -32          
$$

NYZ052-076-080800-
EASTERN NEW YORK
  
CITY           SKY/WX    TMP DP  RH WIND       PRES   REMARKS
ALBANY         FAIR       8   3  80 S3        30.51R                  
NEW YORK CITY  FAIR      31  15  52 NE6       30.52R WCI  25          
$$
 
ANZALL-080800-
MARINE OBSERVATIONS
  
STATION/POSITION TIME  TEMP    WIND        PRES    VSBY  WAVE
                       AIR SEA DIR/SP/G                  HT/PER
                 (UTC) (F)     (DEG/KT/KT) (MB)    (MI)  (FT/S)
BOSTON BUOY      0550   29 47  320/ 16/ 19 1030.9          3/ 3
BUZZARDS BAY     0600   29     350/ 11/ 13 1032.7R
NANTUCKET SOUND  NOT AVBL
MASS BAY-STELLWA 0604   28 46  340/ 16/ 19 1030.1R  1 7/8  2/ 3
ISLE OF SHOALS   0600   24     290/ 16/ 18 1030.9R
S OF BLOCK IS    0630      52                N/A           3/ 4
$$

......................KEY.........................
  SKY/WX - SKY CONDITION/PRESENT WEATHER
  TMP    - TEMPERATURE IN FAHRENHEIT
  DWPT   - DEWPOINT IN FAHRENHEIT
  RH     - RELATIVE HUMIDITY IN PERCENT
  WIND   - DIRECTION AND SPEED IN MPH
  PRES   - MEAN SEA LEVEL PRESSURE IN INCHES OF HG
  WCI    - WIND CHILL INDEX
  VSB    - VISIBILITY IN MILES
  HX     - HEAT INDEX
  TC     - TEMPERATURE IN CELSIUS
  VRB    - VARIABLE WIND DIRECTION
  N/A    - NOT AVAILABLE
  
      

Other recent Regional Weather Roundups

Sun Dec 8, 4:10pm

Sun Dec 8, 4:01pm

Sun Dec 8, 3:10pm

Sun Dec 8, 3:01pm

Sun Dec 8, 2:10pm

Sun Dec 8, 2:01pm

Sun Dec 8, 1:10pm

Sun Dec 8, 1:00pm

Sun Dec 8, 12:10pm

Sun Dec 8, 12:01pm

Sun Dec 8, 11:10am

Sun Dec 8, 11:00am

Sun Dec 8, 10:10am

Sun Dec 8, 10:01am

Sun Dec 8, 9:10am

Sun Dec 8, 9:00am

Sun Dec 8, 8:10am

Sun Dec 8, 8:00am

Sun Dec 8, 7:10am

Sun Dec 8, 7:00am

Sun Dec 8, 6:10am

Sun Dec 8, 6:00am

Sun Dec 8, 5:10am

Sun Dec 8, 5:00am

Sun Dec 8, 4:10am

Sun Dec 8, 4:00am

Sun Dec 8, 3:10am

Sun Dec 8, 3:00am

Sun Dec 8, 2:10am

Sun Dec 8, 1:10am

Sun Dec 8, 1:00am

Sun Dec 8, 12:10am

Sun Dec 8, 12:01am

Sat Dec 7, 11:10pm

Sat Dec 7, 11:00pm

Sat Dec 7, 10:10pm

Sat Dec 7, 10:00pm

Sat Dec 7, 9:10pm

Sat Dec 7, 9:00pm

Sat Dec 7, 8:10pm

Sat Dec 7, 8:00pm

Sat Dec 7, 7:10pm

Sat Dec 7, 7:00pm

Sat Dec 7, 6:10pm

Sat Dec 7, 6:00pm

Sat Dec 7, 5:10pm

Sat Dec 7, 5:00pm

Sat Dec 7, 4:10pm

Sat Dec 7, 4:00pm

Sat Dec 7, 3:10pm

Sat Dec 7, 3:00pm

Sat Dec 7, 2:10pm

Sat Dec 7, 2:01pm

Sat Dec 7, 1:10pm

Sat Dec 7, 1:00pm

Sat Dec 7, 12:10pm

Sat Dec 7, 12:01pm

Sat Dec 7, 11:10am

Sat Dec 7, 11:00am

Sat Dec 7, 10:10am

Sat Dec 7, 10:01am

Sat Dec 7, 9:10am

Sat Dec 7, 9:00am

Sat Dec 7, 8:10am

Sat Dec 7, 8:00am

Sat Dec 7, 7:10am

Sat Dec 7, 7:00am

Sat Dec 7, 6:10am

Sat Dec 7, 6:00am

Sat Dec 7, 5:10am

Sat Dec 7, 5:00am

Sat Dec 7, 4:10am

Sat Dec 7, 4:00am

Sat Dec 7, 3:10am

Sat Dec 7, 3:00am

Sat Dec 7, 2:10am

Sat Dec 7, 2:01am

Sat Dec 7, 1:10am

Sat Dec 7, 1:00am

Sat Dec 7, 12:10am

Sat Dec 7, 12:01am

Fri Dec 6, 11:10pm

Fri Dec 6, 11:00pm

Fri Dec 6, 10:10pm

Fri Dec 6, 10:00pm

Fri Dec 6, 9:10pm

Fri Dec 6, 9:00pm

Fri Dec 6, 8:10pm

Fri Dec 6, 8:00pm

Fri Dec 6, 7:10pm

Fri Dec 6, 7:01pm

Fri Dec 6, 6:10pm

Fri Dec 6, 6:00pm

Fri Dec 6, 5:10pm

Fri Dec 6, 5:00pm

Fri Dec 6, 4:10pm

Fri Dec 6, 4:00pm

Fri Dec 6, 3:10pm

Fri Dec 6, 3:00pm

Fri Dec 6, 2:10pm

Fri Dec 6, 2:00pm

Fri Dec 6, 1:10pm

Fri Dec 6, 1:00pm

Fri Dec 6, 12:10pm

Fri Dec 6, 12:00pm

Fri Dec 6, 11:10am

Fri Dec 6, 11:00am

Fri Dec 6, 10:10am

Fri Dec 6, 10:00am

Fri Dec 6, 9:10am

Fri Dec 6, 9:00am

Fri Dec 6, 8:10am

Fri Dec 6, 8:00am

Fri Dec 6, 7:10am

Fri Dec 6, 7:00am

Fri Dec 6, 6:10am

Fri Dec 6, 6:01am

Fri Dec 6, 5:10am

Fri Dec 6, 5:00am

Fri Dec 6, 4:10am

Fri Dec 6, 4:00am

Fri Dec 6, 3:10am

Fri Dec 6, 3:00am

Fri Dec 6, 2:10am

Fri Dec 6, 2:00am

Fri Dec 6, 1:10am

Fri Dec 6, 1:00am

Fri Dec 6, 12:10am

Fri Dec 6, 12:00am

Thu Dec 5, 11:10pm

Thu Dec 5, 11:00pm

Thu Dec 5, 10:10pm

Thu Dec 5, 10:01pm

Thu Dec 5, 9:10pm

Thu Dec 5, 9:01pm

Thu Dec 5, 8:10pm

Thu Dec 5, 8:00pm

Thu Dec 5, 7:10pm

Thu Dec 5, 7:00pm

Thu Dec 5, 6:10pm

Thu Dec 5, 6:00pm

Thu Dec 5, 5:10pm

Thu Dec 5, 5:00pm

Meta data:

ID: 00f66c61-db52-432e-8285-8113c81b4310
Link: https://api.weather.gov/products/00f66c61-db52-432e-8285-8113c81b4310